Time,TemperatureF,DewpointF,PressureIn,WindDirection,WindDirectionDegrees,WindSpeedMPH,WindSpeedGustMPH,Humidity,HourlyPrecipIn,Conditions,Clouds,dailyrainin,SoftwareType,DateUTC
2013-11-16 00:00:00,37.8,32.5,29.95,ESE,119,1.0,6.0,81,0.00,,---,0.00,VWS V14.01,2013-11-16 05:00:00,
2013-11-16 00:01:00,37.8,32.5,29.95,ESE,119,1.0,6.0,81,0.00,,---,0.00,VWS V14.01,2013-11-16 05:01:00,
2013-11-16 00:03:00,37.8,32.5,29.95,ESE,110,3.0,3.0,81,0.00,,---,0.00,VWS V14.01,2013-11-16 05:03:00,
2013-11-16 00:08:00,37.8,32.5,29.95,ESE,112,0.0,3.0,81,0.00,,---,0.00,VWS V14.01,2013-11-16 05:08:00,
2013-11-16 00:13:00,37.6,32.6,29.95,ESE,120,0.0,3.0,82,0.00,,---,0.00,VWS V14.01,2013-11-16 05:13:00,
2013-11-16 00:18:00,37.3,32.3,29.95,East,97,0.0,3.0,82,0.00,,---,0.00,VWS V14.01,2013-11-16 05:18:00,
2013-11-16 00:23:00,37.0,32.3,29.95,SSE,161,0.0,3.0,83,0.00,,---,0.00,VWS V14.01,2013-11-16 05:23:00,
2013-11-16 00:28:00,37.0,32.6,29.95,SE,137,0.0,4.0,84,0.00,,---,0.00,VWS V14.01,2013-11-16 05:28:00,
2013-11-16 00:30:00,37.0,32.6,29.95,ENE,71,1.0,4.0,84,0.00,,---,0.00,VWS V14.01,2013-11-16 05:30:00,
2013-11-16 00:33:00,37.0,32.3,29.95,ESE,116,0.0,5.0,83,0.00,,---,0.00,VWS V14.01,2013-11-16 05:33:00,
2013-11-16 00:38:00,37.0,32.6,29.95,ESE,114,5.0,5.0,84,0.00,,---,0.00,VWS V14.01,2013-11-16 05:38:00,
2013-11-16 00:43:00,37.2,32.8,29.95,ESE,120,2.0,5.0,84,0.00,,---,0.00,VWS V14.01,2013-11-16 05:43:00,
2013-11-16 00:48:00,37.2,32.5,29.95,ESE,110,0.0,5.0,83,0.00,,---,0.00,VWS V14.01,2013-11-16 05:48:00,
2013-11-16 00:53:00,37.0,32.6,29.95,ESE,117,0.0,5.0,84,0.00,,---,0.00,VWS V14.01,2013-11-16 05:53:00,
2013-11-16 00:58:00,36.9,32.5,29.95,ESE,107,0.0,5.0,84,0.00,,---,0.00,VWS V14.01,2013-11-16 05:58:00,
2013-11-16 01:00:00,36.9,32.8,29.95,SE,144,0.0,5.0,85,0.00,,---,0.00,VWS V14.01,2013-11-16 06:00:00,
2013-11-16 01:03:00,36.9,32.8,29.95,SE,144,0.0,1.0,85,0.00,,---,0.00,VWS V14.01,2013-11-16 06:03:00,
2013-11-16 01:08:00,36.8,32.7,29.95,ESE,113,0.0,1.0,85,0.00,,---,0.00,VWS V14.01,2013-11-16 06:08:00,
2013-11-16 01:13:00,36.8,32.7,29.95,ESE,116,0.0,2.0,85,0.00,,---,0.00,VWS V14.01,2013-11-16 06:13:00,
2013-11-16 01:18:00,36.8,32.7,29.95,ESE,120,0.0,3.0,85,0.00,,---,0.00,VWS V14.01,2013-11-16 06:18:00,
2013-11-16 01:23:00,36.8,32.7,29.95,East,100,1.0,3.0,85,0.00,,---,0.00,VWS V14.01,2013-11-16 06:23:00,
2013-11-16 01:28:00,36.6,32.5,29.95,South,171,0.0,3.0,85,0.00,,---,0.00,VWS V14.01,2013-11-16 06:28:00,
2013-11-16 01:30:00,36.6,32.5,29.94,ESE,106,0.0,3.0,85,0.00,,---,0.00,VWS V14.01,2013-11-16 06:30:00,
2013-11-16 01:33:00,36.6,32.8,29.94,ESE,117,0.0,3.0,86,0.00,,---,0.00,VWS V14.01,2013-11-16 06:33:00,
2013-11-16 01:38:00,36.5,32.7,29.94,ESE,110,0.0,3.0,86,0.00,,---,0.00,VWS V14.01,2013-11-16 06:38:00,
2013-11-16 01:43:00,36.6,32.8,29.94,SSW,205,0.0,3.0,86,0.00,,---,0.00,VWS V14.01,2013-11-16 06:43:00,
2013-11-16 01:48:00,36.6,32.8,29.94,ESE,120,0.0,3.0,86,0.00,,---,0.00,VWS V14.01,2013-11-16 06:48:00,
2013-11-16 01:53:00,36.8,33.0,29.94,SE,133,0.0,3.0,86,0.00,,---,0.00,VWS V14.01,2013-11-16 06:53:00,
2013-11-16 01:58:00,36.6,32.8,29.94,SE,140,0.0,3.0,86,0.00,,---,0.00,VWS V14.01,2013-11-16 06:58:00,
2013-11-16 02:00:00,36.8,33.0,29.94,SE,130,0.0,5.0,86,0.00,,---,0.00,VWS V14.01,2013-11-16 07:00:00,
2013-11-16 02:03:00,36.8,33.0,29.94,ESE,107,0.0,2.0,86,0.00,,---,0.00,VWS V14.01,2013-11-16 07:03:00,
2013-11-16 02:08:00,36.9,33.4,29.94,ESE,106,2.0,3.0,87,0.00,,---,0.00,VWS V14.01,2013-11-16 07:08:00,
2013-11-16 02:13:00,37.0,33.5,29.94,ESE,114,0.0,5.0,87,0.00,,---,0.00,VWS V14.01,2013-11-16 07:13:00,
2013-11-16 02:18:00,37.2,33.4,29.94,SE,136,2.0,5.0,86,0.00,,---,0.00,VWS V14.01,2013-11-16 07:18:00,
2013-11-16 02:23:00,37.3,33.2,29.94,ESE,107,1.0,6.0,85,0.00,,---,0.00,VWS V14.01,2013-11-16 07:23:00,
2013-11-16 02:28:00,37.2,33.1,29.94,East,96,2.0,6.0,85,0.00,,---,0.00,VWS V14.01,2013-11-16 07:28:00,
2013-11-16 02:30:00,37.2,33.1,29.94,ESE,120,2.0,6.0,85,0.00,,---,0.00,VWS V14.01,2013-11-16 07:30:00,
2013-11-16 02:33:00,37.2,33.1,29.94,ESE,113,1.0,2.0,85,0.00,,---,0.00,VWS V14.01,2013-11-16 07:33:00,
2013-11-16 02:38:00,37.2,33.1,29.94,SE,143,0.0,5.0,85,0.00,,---,0.00,VWS V14.01,2013-11-16 07:38:00,
2013-11-16 02:43:00,37.2,33.1,29.94,SSE,165,1.0,5.0,85,0.00,,---,0.00,VWS V14.01,2013-11-16 07:43:00,
2013-11-16 02:48:00,37.2,33.1,29.94,NNE,25,1.0,5.0,85,0.00,,---,0.00,VWS V14.01,2013-11-16 07:48:00,
2013-11-16 02:53:00,37.2,33.1,29.94,SE,124,0.0,5.0,85,0.00,,---,0.00,VWS V14.01,2013-11-16 07:53:00,
2013-11-16 02:58:00,37.2,33.4,29.94,SSE,147,2.0,6.0,86,0.00,,---,0.00,VWS V14.01,2013-11-16 07:58:00,
2013-11-16 03:00:00,37.2,33.4,29.94,ESE,104,1.0,6.0,86,0.00,,---,0.00,VWS V14.01,2013-11-16 08:00:00,
2013-11-16 03:03:00,37.2,33.4,29.94,SE,124,3.0,10.0,86,0.00,,---,0.00,VWS V14.01,2013-11-16 08:03:00,
2013-11-16 03:08:00,37.2,33.4,29.94,ESE,117,0.0,10.0,86,0.00,,---,0.00,VWS V14.01,2013-11-16 08:08:00,
2013-11-16 03:13:00,37.2,33.4,29.94,ESE,114,0.0,10.0,86,0.00,,---,0.00,VWS V14.01,2013-11-16 08:13:00,
2013-11-16 03:18:00,37.2,33.4,29.95,ESE,116,0.0,10.0,86,0.00,,---,0.00,VWS V14.01,2013-11-16 08:18:00,
2013-11-16 03:23:00,37.0,33.2,29.95,ESE,120,3.0,10.0,86,0.00,,---,0.00,VWS V14.01,2013-11-16 08:23:00,
2013-11-16 03:28:00,36.9,33.4,29.95,ESE,121,1.0,10.0,87,0.00,,---,0.00,VWS V14.01,2013-11-16 08:28:00,
2013-11-16 03:30:00,36.9,33.4,29.95,SE,137,2.0,10.0,87,0.00,,---,0.00,VWS V14.01,2013-11-16 08:30:00,
2013-11-16 03:33:00,36.9,33.4,29.95,ESE,114,2.0,6.0,87,0.00,,---,0.00,VWS V14.01,2013-11-16 08:33:00,
2013-11-16 03:38:00,36.9,33.4,29.95,ESE,109,1.0,6.0,87,0.00,,---,0.00,VWS V14.01,2013-11-16 08:38:00,
2013-11-16 03:43:00,36.9,33.7,29.95,ESE,106,3.0,6.0,88,0.00,,---,0.00,VWS V14.01,2013-11-16 08:43:00,
2013-11-16 03:48:00,36.8,33.6,29.94,SE,134,1.0,6.0,88,0.00,,---,0.00,VWS V14.01,2013-11-16 08:48:00,
2013-11-16 03:53:00,36.8,33.6,29.94,SE,138,0.0,6.0,88,0.00,,---,0.00,VWS V14.01,2013-11-16 08:53:00,
2013-11-16 03:58:00,36.8,33.6,29.94,ESE,119,1.0,6.0,88,0.00,,---,0.00,VWS V14.01,2013-11-16 08:58:00,
2013-11-16 04:00:00,36.8,33.6,29.95,ESE,102,0.0,6.0,88,0.00,,---,0.00,VWS V14.01,2013-11-16 09:00:00,
2013-11-16 04:03:00,36.6,33.4,29.95,East,100,2.0,2.0,88,0.00,,---,0.00,VWS V14.01,2013-11-16 09:03:00,
2013-11-16 04:08:00,36.6,33.7,29.95,ESE,116,0.0,3.0,89,0.00,,---,0.00,VWS V14.01,2013-11-16 09:08:00,
2013-11-16 04:13:00,36.6,33.7,29.95,ESE,110,1.0,4.0,89,0.00,,---,0.00,VWS V14.01,2013-11-16 09:13:00,
2013-11-16 04:18:00,36.5,33.6,29.94,ESE,114,0.0,5.0,89,0.00,,---,0.00,VWS V14.01,2013-11-16 09:18:00,
2013-11-16 04:23:00,36.5,33.6,29.94,SE,136,0.0,5.0,89,0.00,,---,0.00,VWS V14.01,2013-11-16 09:23:00,
2013-11-16 04:28:00,36.5,33.8,29.94,SE,145,0.0,5.0,90,0.00,,---,0.00,VWS V14.01,2013-11-16 09:28:00,
2013-11-16 04:30:00,36.5,33.8,29.94,SE,145,0.0,5.0,90,0.00,,---,0.00,VWS V14.01,2013-11-16 09:30:00,
2013-11-16 04:33:00,36.6,34.0,29.94,ESE,110,1.0,2.0,90,0.00,,---,0.00,VWS V14.01,2013-11-16 09:33:00,
2013-11-16 04:38:00,36.8,34.4,29.94,SE,140,4.0,5.0,91,0.00,,---,0.00,VWS V14.01,2013-11-16 09:38:00,
2013-11-16 04:43:00,37.0,34.3,29.94,ESE,112,3.0,5.0,90,0.00,,---,0.00,VWS V14.01,2013-11-16 09:43:00,
2013-11-16 04:48:00,36.9,34.2,29.94,SSE,148,0.0,6.0,90,0.00,,---,0.00,VWS V14.01,2013-11-16 09:48:00,
2013-11-16 04:53:00,36.9,34.2,29.94,East,99,0.0,6.0,90,0.00,,---,0.00,VWS V14.01,2013-11-16 09:53:00,
2013-11-16 04:58:00,36.9,34.2,29.94,ESE,123,1.0,6.0,90,0.00,,---,0.00,VWS V14.01,2013-11-16 09:58:00,
2013-11-16 05:00:00,36.8,34.2,29.94,ESE,109,1.0,6.0,90,0.00,,---,0.00,VWS V14.01,2013-11-16 10:00:00,
2013-11-16 05:03:00,36.8,34.2,29.94,SE,128,0.0,3.0,90,0.00,,---,0.00,VWS V14.01,2013-11-16 10:03:00,
2013-11-16 05:08:00,36.6,34.0,29.94,SE,141,0.0,3.0,90,0.00,,---,0.00,VWS V14.01,2013-11-16 10:08:00,
2013-11-16 05:13:00,36.6,34.2,29.94,SSE,160,0.0,3.0,91,0.00,,---,0.00,VWS V14.01,2013-11-16 10:13:00,
2013-11-16 05:18:00,36.2,33.8,29.96,SSE,147,0.0,3.0,91,0.00,,---,0.00,VWS V14.01,2013-11-16 10:18:00,
2013-11-16 05:23:00,35.9,33.5,29.96,SSE,165,0.0,3.0,91,0.00,,---,0.00,VWS V14.01,2013-11-16 10:23:00,
2013-11-16 05:28:00,36.0,33.9,29.96,ESE,113,1.0,3.0,92,0.00,,---,0.00,VWS V14.01,2013-11-16 10:28:00,
2013-11-16 05:30:00,36.2,34.1,29.96,SE,127,0.0,3.0,92,0.00,,---,0.00,VWS V14.01,2013-11-16 10:30:00,
2013-11-16 05:33:00,36.2,34.4,29.96,SE,126,0.0,6.0,93,0.00,,---,0.00,VWS V14.01,2013-11-16 10:33:00,
2013-11-16 05:38:00,36.0,33.9,29.96,ESE,102,1.0,6.0,92,0.00,,---,0.00,VWS V14.01,2013-11-16 10:38:00,
2013-11-16 05:43:00,36.0,34.2,29.96,ESE,109,0.0,6.0,93,0.00,,---,0.00,VWS V14.01,2013-11-16 10:43:00,
2013-11-16 05:48:00,35.9,34.1,29.95,ESE,121,0.0,6.0,93,0.00,,---,0.00,VWS V14.01,2013-11-16 10:48:00,
2013-11-16 05:53:00,35.9,34.1,29.95,ESE,103,2.0,6.0,93,0.00,,---,0.00,VWS V14.01,2013-11-16 10:53:00,
2013-11-16 05:58:00,36.0,34.4,29.95,East,92,0.0,6.0,94,0.00,,---,0.00,VWS V14.01,2013-11-16 10:58:00,
2013-11-16 06:00:00,36.2,34.6,29.95,ESE,123,0.0,6.0,94,0.00,,---,0.00,VWS V14.01,2013-11-16 11:00:00,
2013-11-16 06:03:00,36.5,34.9,29.95,SSE,147,1.0,5.0,94,0.00,,---,0.00,VWS V14.01,2013-11-16 11:03:00,
2013-11-16 06:08:00,37.0,35.4,29.95,SE,143,3.0,5.0,94,0.00,,---,0.00,VWS V14.01,2013-11-16 11:08:00,
2013-11-16 06:13:00,37.6,35.8,29.95,ENE,76,0.0,6.0,93,0.00,,---,0.00,VWS V14.01,2013-11-16 11:13:00,
2013-11-16 06:18:00,38.0,35.9,29.94,ESE,106,3.0,7.0,92,0.00,,---,0.00,VWS V14.01,2013-11-16 11:18:00,
2013-11-16 06:23:00,38.5,36.1,29.94,ESE,114,2.0,7.0,91,0.00,,---,0.00,VWS V14.01,2013-11-16 11:23:00,
2013-11-16 06:28:00,38.9,36.2,29.94,ESE,121,3.0,7.0,90,0.00,,---,0.00,VWS V14.01,2013-11-16 11:28:00,
2013-11-16 06:30:00,39.2,36.2,29.94,ESE,102,0.0,7.0,89,0.00,,---,0.00,VWS V14.01,2013-11-16 11:30:00,
2013-11-16 06:33:00,39.3,36.0,29.94,SSE,165,3.0,3.0,88,0.00,,---,0.00,VWS V14.01,2013-11-16 11:33:00,
2013-11-16 06:38:00,39.5,36.2,29.94,East,99,1.0,5.0,88,0.00,,---,0.00,VWS V14.01,2013-11-16 11:38:00,
2013-11-16 06:43:00,39.9,36.3,29.94,SE,130,3.0,7.0,87,0.00,,---,0.00,VWS V14.01,2013-11-16 11:43:00,
2013-11-16 06:48:00,40.1,36.3,29.94,South,176,1.0,8.0,86,0.00,,---,0.00,VWS V14.01,2013-11-16 11:48:00,
2013-11-16 06:53:00,40.3,35.9,29.94,ESE,103,5.0,10.0,84,0.00,,---,0.00,VWS V14.01,2013-11-16 11:53:00,
2013-11-16 06:58:00,40.3,35.9,29.94,South,171,7.0,10.0,84,0.00,,---,0.00,VWS V14.01,2013-11-16 11:58:00,
2013-11-16 07:00:00,40.3,35.9,29.94,South,186,1.0,10.0,84,0.00,,---,0.00,VWS V14.01,2013-11-16 12:00:00,
2013-11-16 07:04:00,40.5,36.0,29.94,ENE,69,2.0,6.0,84,0.00,,---,0.00,VWS V14.01,2013-11-16 12:04:00,
2013-11-16 07:09:00,40.3,35.9,29.94,ESE,113,0.0,6.0,84,0.00,,---,0.00,VWS V14.01,2013-11-16 12:09:00,
2013-11-16 07:14:00,40.5,36.0,29.94,ESE,112,1.0,7.0,84,0.00,,---,0.00,VWS V14.01,2013-11-16 12:14:00,
2013-11-16 07:19:00,40.5,36.0,29.93,SE,134,1.0,8.0,84,0.00,,---,0.00,VWS V14.01,2013-11-16 12:19:00,
2013-11-16 07:24:00,40.5,36.0,29.93,SE,130,0.0,8.0,84,0.00,,---,0.00,VWS V14.01,2013-11-16 12:24:00,
2013-11-16 07:29:00,40.5,35.8,29.93,ESE,110,6.0,8.0,83,0.00,,---,0.00,VWS V14.01,2013-11-16 12:29:00,
2013-11-16 07:30:00,40.5,35.8,29.93,SSW,206,3.0,8.0,83,0.00,,---,0.00,VWS V14.01,2013-11-16 12:30:00,
2013-11-16 07:34:00,40.5,35.8,29.93,SSE,167,1.0,7.0,83,0.00,,---,0.00,VWS V14.01,2013-11-16 12:34:00,
2013-11-16 07:39:00,40.5,35.8,29.93,ESE,123,2.0,7.0,83,0.00,,---,0.00,VWS V14.01,2013-11-16 12:39:00,
2013-11-16 07:44:00,40.5,35.5,29.93,ESE,113,5.0,10.0,82,0.00,,---,0.00,VWS V14.01,2013-11-16 12:44:00,
2013-11-16 07:49:00,40.5,35.5,29.93,SSW,196,1.0,10.0,82,0.00,,---,0.00,VWS V14.01,2013-11-16 12:49:00,
2013-11-16 07:54:00,40.5,35.5,29.93,South,182,0.0,10.0,82,0.00,,---,0.00,VWS V14.01,2013-11-16 12:54:00,
2013-11-16 07:59:00,40.5,35.5,29.93,SE,134,4.0,10.0,82,0.00,,---,0.00,VWS V14.01,2013-11-16 12:59:00,
2013-11-16 08:00:00,40.5,35.5,29.93,ESE,106,2.0,10.0,82,0.00,,---,0.00,VWS V14.01,2013-11-16 13:00:00,
2013-11-16 08:04:00,40.5,35.5,29.93,ESE,120,2.0,8.0,82,0.00,,---,0.00,VWS V14.01,2013-11-16 13:04:00,
2013-11-16 08:09:00,40.5,35.5,29.93,SSE,157,3.0,8.0,82,0.00,,---,0.00,VWS V14.01,2013-11-16 13:09:00,
2013-11-16 08:14:00,40.3,35.2,29.93,East,97,2.0,8.0,82,0.00,,---,0.00,VWS V14.01,2013-11-16 13:14:00,
2013-11-16 08:19:00,40.3,35.6,29.92,East,100,5.0,8.0,83,0.00,,---,0.00,VWS V14.01,2013-11-16 13:19:00,
2013-11-16 08:24:00,40.5,35.8,29.92,ESE,114,4.0,8.0,83,0.00,,---,0.00,VWS V14.01,2013-11-16 13:24:00,
2013-11-16 08:29:00,40.6,35.5,29.92,ESE,110,2.0,8.0,82,0.00,,---,0.00,VWS V14.01,2013-11-16 13:29:00,
2013-11-16 08:30:00,40.8,35.7,29.90,SE,143,2.0,8.0,82,0.00,,---,0.00,VWS V14.01,2013-11-16 13:30:00,
2013-11-16 08:34:00,40.9,35.5,29.90,SSE,158,5.0,13.0,81,0.00,,---,0.00,VWS V14.01,2013-11-16 13:34:00,
2013-11-16 08:39:00,41.1,35.4,29.90,SSW,195,5.0,13.0,80,0.00,,---,0.00,VWS V14.01,2013-11-16 13:39:00,
2013-11-16 08:44:00,41.5,35.5,29.90,ESE,119,4.0,13.0,79,0.00,,---,0.00,VWS V14.01,2013-11-16 13:44:00,
2013-11-16 08:49:00,41.3,35.3,29.91,SE,124,5.0,13.0,79,0.00,,---,0.00,VWS V14.01,2013-11-16 13:49:00,
2013-11-16 08:54:00,41.3,35.3,29.91,ESE,121,1.0,13.0,79,0.00,,---,0.00,VWS V14.01,2013-11-16 13:54:00,
2013-11-16 08:59:00,41.5,35.5,29.91,SE,128,7.0,14.0,79,0.00,,---,0.00,VWS V14.01,2013-11-16 13:59:00,
2013-11-16 09:00:00,41.5,35.5,29.91,ESE,112,5.0,14.0,79,0.00,,---,0.00,VWS V14.01,2013-11-16 14:00:00,
2013-11-16 09:04:00,41.6,35.6,29.91,SE,138,1.0,12.0,79,0.00,,---,0.00,VWS V14.01,2013-11-16 14:04:00,
2013-11-16 09:09:00,41.6,35.6,29.91,SSW,208,2.0,12.0,79,0.00,,---,0.00,VWS V14.01,2013-11-16 14:09:00,
2013-11-16 09:14:00,41.8,35.8,29.91,SE,137,4.0,12.0,79,0.00,,---,0.00,VWS V14.01,2013-11-16 14:14:00,
2013-11-16 09:19:00,41.9,35.9,29.90,SE,137,7.0,12.0,79,0.00,,---,0.00,VWS V14.01,2013-11-16 14:19:00,
2013-11-16 09:24:00,42.1,36.1,29.90,ESE,106,2.0,12.0,79,0.00,,---,0.00,VWS V14.01,2013-11-16 14:24:00,
2013-11-16 09:29:00,42.2,36.2,29.90,SSE,154,2.0,12.0,79,0.00,,---,0.00,VWS V14.01,2013-11-16 14:29:00,
2013-11-16 09:30:00,42.2,36.2,29.90,SSE,155,0.0,12.0,79,0.00,,---,0.00,VWS V14.01,2013-11-16 14:30:00,
2013-11-16 09:34:00,42.3,36.3,29.90,WSW,241,0.0,10.0,79,0.00,,---,0.00,VWS V14.01,2013-11-16 14:34:00,
2013-11-16 09:39:00,42.6,36.5,29.90,SSE,162,2.0,10.0,79,0.00,,---,0.00,VWS V14.01,2013-11-16 14:39:00,
2013-11-16 09:44:00,42.8,36.8,29.90,East,99,3.0,10.0,79,0.00,,---,0.00,VWS V14.01,2013-11-16 14:44:00,
2013-11-16 09:49:00,43.2,37.1,29.90,SSE,168,0.0,10.0,79,0.00,,---,0.00,VWS V14.01,2013-11-16 14:49:00,
2013-11-16 09:54:00,43.6,37.5,29.90,SSE,165,3.0,10.0,79,0.00,,---,0.00,VWS V14.01,2013-11-16 14:54:00,
2013-11-16 09:59:00,44.1,38.0,29.90,SE,124,7.0,16.0,79,0.00,,---,0.00,VWS V14.01,2013-11-16 14:59:00,
2013-11-16 10:00:00,44.2,38.1,29.89,ESE,102,6.0,16.0,79,0.00,,---,0.00,VWS V14.01,2013-11-16 15:00:00,
2013-11-16 10:04:00,44.5,38.4,29.89,SE,127,3.0,7.0,79,0.00,,---,0.00,VWS V14.01,2013-11-16 15:04:00,
2013-11-16 10:09:00,44.6,38.5,29.89,SE,127,5.0,7.0,79,0.00,,---,0.00,VWS V14.01,2013-11-16 15:09:00,
2013-11-16 10:14:00,45.1,39.0,29.89,SE,134,2.0,7.0,79,0.00,,---,0.00,VWS V14.01,2013-11-16 15:14:00,
2013-11-16 10:19:00,45.5,39.4,29.89,SE,124,0.0,7.0,79,0.00,,---,0.00,VWS V14.01,2013-11-16 15:19:00,
2013-11-16 10:24:00,45.8,39.3,29.89,SE,127,0.0,11.0,78,0.00,,---,0.00,VWS V14.01,2013-11-16 15:24:00,
2013-11-16 10:29:00,46.4,40.2,29.89,East,79,5.0,11.0,79,0.00,,---,0.00,VWS V14.01,2013-11-16 15:29:00,
2013-11-16 10:30:00,46.4,40.2,29.87,SE,140,5.0,11.0,79,0.00,,---,0.00,VWS V14.01,2013-11-16 15:30:00,
2013-11-16 10:34:00,46.8,40.3,29.87,South,172,2.0,11.0,78,0.00,,---,0.00,VWS V14.01,2013-11-16 15:34:00,
2013-11-16 10:39:00,47.4,40.9,29.87,East,97,3.0,13.0,78,0.00,,---,0.00,VWS V14.01,2013-11-16 15:39:00,
2013-11-16 10:44:00,48.2,41.3,29.87,SSE,151,6.0,13.0,77,0.00,,---,0.00,VWS V14.01,2013-11-16 15:44:00,
2013-11-16 10:49:00,48.6,41.7,29.86,South,181,8.0,13.0,77,0.00,,---,0.00,VWS V14.01,2013-11-16 15:49:00,
2013-11-16 10:54:00,48.9,41.7,29.86,NE,55,0.0,13.0,76,0.00,,---,0.00,VWS V14.01,2013-11-16 15:54:00,
2013-11-16 10:59:00,49.2,42.0,29.86,ESE,120,2.0,13.0,76,0.00,,---,0.00,VWS V14.01,2013-11-16 15:59:00,
2013-11-16 11:00:00,49.4,42.2,29.86,ESE,102,7.0,13.0,76,0.00,,---,0.00,VWS V14.01,2013-11-16 16:00:00,
2013-11-16 11:04:00,49.4,42.2,29.86,ENE,71,6.0,7.0,76,0.00,,---,0.00,VWS V14.01,2013-11-16 16:04:00,
2013-11-16 11:09:00,49.6,42.7,29.86,SSE,155,5.0,10.0,77,0.00,,---,0.00,VWS V14.01,2013-11-16 16:09:00,
2013-11-16 11:14:00,49.6,42.0,29.86,SSW,209,2.0,11.0,75,0.00,,---,0.00,VWS V14.01,2013-11-16 16:14:00,
2013-11-16 11:19:00,49.5,42.3,29.86,ESE,119,2.0,11.0,76,0.00,,---,0.00,VWS V14.01,2013-11-16 16:19:00,
2013-11-16 11:24:00,49.5,41.9,29.86,ESE,113,12.0,12.0,75,0.00,,---,0.00,VWS V14.01,2013-11-16 16:24:00,
2013-11-16 11:29:00,49.5,42.3,29.86,SSW,193,9.0,12.0,76,0.00,,---,0.00,VWS V14.01,2013-11-16 16:29:00,
2013-11-16 11:30:00,49.5,42.3,29.85,ESE,116,1.0,12.0,76,0.00,,---,0.00,VWS V14.01,2013-11-16 16:30:00,
2013-11-16 11:34:00,49.5,42.3,29.85,SE,127,2.0,12.0,76,0.00,,---,0.00,VWS V14.01,2013-11-16 16:34:00,
2013-11-16 11:39:00,49.4,42.5,29.85,NE,40,2.0,13.0,77,0.00,,---,0.00,VWS V14.01,2013-11-16 16:39:00,
2013-11-16 11:44:00,49.2,42.3,29.85,SE,137,3.0,17.0,77,0.00,,---,0.00,VWS V14.01,2013-11-16 16:44:00,
2013-11-16 11:49:00,49.2,42.3,29.84,WSW,237,3.0,17.0,77,0.00,,---,0.00,VWS V14.01,2013-11-16 16:49:00,
2013-11-16 11:54:00,49.2,42.6,29.84,SE,145,3.0,24.0,78,0.00,,---,0.00,VWS V14.01,2013-11-16 16:54:00,
2013-11-16 11:59:00,49.1,42.5,29.84,ESE,116,7.0,24.0,78,0.00,,---,0.00,VWS V14.01,2013-11-16 16:59:00,
2013-11-16 12:00:00,49.1,42.5,29.83,South,174,0.0,24.0,78,0.00,,---,0.00,VWS V14.01,2013-11-16 17:00:00,
2013-11-16 12:04:00,49.1,42.9,29.83,ESE,106,7.0,12.0,79,0.00,,---,0.00,VWS V14.01,2013-11-16 17:04:00,
2013-11-16 12:09:00,49.2,43.0,29.83,South,175,1.0,16.0,79,0.00,,---,0.00,VWS V14.01,2013-11-16 17:09:00,
2013-11-16 12:14:00,49.2,43.0,29.83,South,178,10.0,16.0,79,0.00,,---,0.00,VWS V14.01,2013-11-16 17:14:00,
2013-11-16 12:19:00,49.2,43.0,29.83,ESE,113,8.0,16.0,79,0.00,,---,0.00,VWS V14.01,2013-11-16 17:19:00,
2013-11-16 12:24:00,49.2,43.0,29.83,SW,216,0.0,16.0,79,0.00,,---,0.00,VWS V14.01,2013-11-16 17:24:00,
2013-11-16 12:29:00,49.2,43.0,29.83,SSE,148,6.0,16.0,79,0.00,,---,0.00,VWS V14.01,2013-11-16 17:29:00,
2013-11-16 12:30:00,49.2,43.0,29.83,South,179,4.0,16.0,79,0.00,,---,0.00,VWS V14.01,2013-11-16 17:30:00,
2013-11-16 12:34:00,49.2,43.0,29.83,SSE,158,11.0,11.0,79,0.00,,---,0.00,VWS V14.01,2013-11-16 17:34:00,
2013-11-16 12:39:00,49.2,43.0,29.83,South,179,5.0,11.0,79,0.00,,---,0.00,VWS V14.01,2013-11-16 17:39:00,
2013-11-16 12:44:00,49.2,43.0,29.83,SSE,167,2.0,11.0,79,0.00,,---,0.00,VWS V14.01,2013-11-16 17:44:00,
2013-11-16 12:49:00,49.2,43.0,29.82,East,82,3.0,11.0,79,0.00,,---,0.00,VWS V14.01,2013-11-16 17:49:00,
2013-11-16 12:54:00,49.1,42.9,29.82,SSW,199,5.0,11.0,79,0.00,,---,0.00,VWS V14.01,2013-11-16 17:54:00,
2013-11-16 12:59:00,49.1,42.9,29.82,SSW,206,5.0,11.0,79,0.00,,---,0.00,VWS V14.01,2013-11-16 17:59:00,
2013-11-16 13:00:00,49.1,42.9,29.82,ESE,106,3.0,11.0,79,0.00,,---,0.00,VWS V14.01,2013-11-16 18:00:00,
2013-11-16 13:04:00,49.1,42.9,29.82,East,95,6.0,11.0,79,0.00,,---,0.00,VWS V14.01,2013-11-16 18:04:00,
2013-11-16 13:09:00,49.1,43.2,29.82,SSE,162,1.0,11.0,80,0.00,,---,0.00,VWS V14.01,2013-11-16 18:09:00,
2013-11-16 13:14:00,49.2,43.0,29.82,South,171,2.0,11.0,79,0.00,,---,0.00,VWS V14.01,2013-11-16 18:14:00,
2013-11-16 13:19:00,49.5,43.3,29.80,East,95,8.0,11.0,79,0.00,,---,0.00,VWS V14.01,2013-11-16 18:19:00,
2013-11-16 13:24:00,49.6,43.4,29.80,SE,144,10.0,12.0,79,0.00,,---,0.00,VWS V14.01,2013-11-16 18:24:00,
2013-11-16 13:29:00,49.6,43.4,29.80,ESE,117,5.0,12.0,79,0.00,,---,0.00,VWS V14.01,2013-11-16 18:29:00,
2013-11-16 13:30:00,49.6,43.4,29.79,SE,137,0.0,12.0,79,0.00,,---,0.00,VWS V14.01,2013-11-16 18:30:00,
2013-11-16 13:34:00,49.6,43.4,29.79,ESE,110,10.0,11.0,79,0.00,,---,0.00,VWS V14.01,2013-11-16 18:34:00,
2013-11-16 13:39:00,49.6,43.4,29.79,East,85,10.0,11.0,79,0.00,,---,0.00,VWS V14.01,2013-11-16 18:39:00,
2013-11-16 13:44:00,49.6,43.7,29.79,ESE,107,2.0,11.0,80,0.00,,---,0.00,VWS V14.01,2013-11-16 18:44:00,
2013-11-16 13:50:00,49.6,43.7,29.79,SSW,212,1.0,11.0,80,0.00,,---,0.00,VWS V14.01,2013-11-16 18:50:00,
2013-11-16 13:55:00,49.6,43.7,29.79,SE,124,9.0,11.0,80,0.00,,---,0.00,VWS V14.01,2013-11-16 18:55:00,
2013-11-16 14:00:00,49.8,43.9,29.79,ESE,119,7.0,11.0,80,0.00,,---,0.00,VWS V14.01,2013-11-16 19:00:00,
2013-11-16 14:05:00,49.8,44.2,29.77,ESE,102,3.0,14.0,81,0.00,,---,0.00,VWS V14.01,2013-11-16 19:05:00,
2013-11-16 14:10:00,49.8,44.2,29.77,ESE,114,3.0,14.0,81,0.00,,---,0.00,VWS V14.01,2013-11-16 19:10:00,
2013-11-16 14:15:00,49.8,44.2,29.76,SW,216,7.0,14.0,81,0.00,,---,0.00,VWS V14.01,2013-11-16 19:15:00,
2013-11-16 14:20:00,49.8,44.2,29.76,ENE,69,2.0,14.0,81,0.00,,---,0.00,VWS V14.01,2013-11-16 19:20:00,
2013-11-16 14:25:00,49.8,44.2,29.76,SE,127,7.0,14.0,81,0.00,,---,0.00,VWS V14.01,2013-11-16 19:25:00,
2013-11-16 14:30:00,49.6,44.3,29.76,SW,220,3.0,14.0,82,0.00,,---,0.00,VWS V14.01,2013-11-16 19:30:00,
2013-11-16 14:35:00,49.5,44.2,29.76,ESE,123,3.0,7.0,82,0.00,,---,0.00,VWS V14.01,2013-11-16 19:35:00,
2013-11-16 14:40:00,49.5,44.2,29.76,East,83,3.0,7.0,82,0.00,,---,0.00,VWS V14.01,2013-11-16 19:40:00,
2013-11-16 14:45:00,49.6,44.7,29.75,West,271,5.0,8.0,83,0.00,,---,0.00,VWS V14.01,2013-11-16 19:45:00,
2013-11-16 14:50:00,49.6,44.3,29.75,SW,230,1.0,8.0,82,0.00,,---,0.00,VWS V14.01,2013-11-16 19:50:00,
2013-11-16 14:55:00,49.6,44.3,29.75,ESE,117,2.0,8.0,82,0.00,,---,0.00,VWS V14.01,2013-11-16 19:55:00,
2013-11-16 15:00:00,49.6,44.7,29.76,South,185,3.0,8.0,83,0.00,,---,0.00,VWS V14.01,2013-11-16 20:00:00,
2013-11-16 15:05:00,49.6,44.7,29.76,ESE,109,1.0,7.0,83,0.00,,---,0.00,VWS V14.01,2013-11-16 20:05:00,
2013-11-16 15:10:00,49.8,44.8,29.76,ESE,123,4.0,7.0,83,0.00,,---,0.00,VWS V14.01,2013-11-16 20:10:00,
2013-11-16 15:15:00,49.8,44.8,29.76,ESE,106,2.0,9.0,83,0.00,,---,0.00,VWS V14.01,2013-11-16 20:15:00,
2013-11-16 15:20:00,49.8,44.8,29.76,SW,219,0.0,9.0,83,0.00,,---,0.00,VWS V14.01,2013-11-16 20:20:00,
2013-11-16 15:25:00,49.8,44.8,29.76,SSW,195,0.0,9.0,83,0.00,,---,0.00,VWS V14.01,2013-11-16 20:25:00,
2013-11-16 15:30:00,49.8,44.8,29.75,ESE,117,0.0,9.0,83,0.00,,---,0.00,VWS V14.01,2013-11-16 20:30:00,
2013-11-16 15:35:00,49.8,44.8,29.75,ESE,123,0.0,10.0,83,0.00,,---,0.00,VWS V14.01,2013-11-16 20:35:00,
2013-11-16 15:40:00,49.8,44.8,29.75,SSE,147,2.0,10.0,83,0.00,,---,0.00,VWS V14.01,2013-11-16 20:40:00,
2013-11-16 15:45:00,49.9,45.0,29.75,SE,131,0.0,10.0,83,0.00,,---,0.00,VWS V14.01,2013-11-16 20:45:00,
2013-11-16 15:50:00,49.9,45.0,29.75,ESE,117,6.0,10.0,83,0.00,,---,0.00,VWS V14.01,2013-11-16 20:50:00,
2013-11-16 15:55:00,50.1,45.2,29.75,SE,130,1.0,10.0,83,0.00,,---,0.00,VWS V14.01,2013-11-16 20:55:00,
2013-11-16 16:00:00,50.2,45.2,29.74,East,89,0.0,10.0,83,0.00,,---,0.00,VWS V14.01,2013-11-16 21:00:00,
2013-11-16 16:05:00,50.4,45.4,29.74,SE,134,2.0,7.0,83,0.00,,---,0.00,VWS V14.01,2013-11-16 21:05:00,
2013-11-16 16:10:00,50.4,45.4,29.74,SE,124,3.0,7.0,83,0.00,,---,0.00,VWS V14.01,2013-11-16 21:10:00,
2013-11-16 16:15:00,50.5,45.5,29.74,ESE,102,12.0,12.0,83,0.00,,---,0.00,VWS V14.01,2013-11-16 21:15:00,
2013-11-16 16:20:00,50.7,45.4,29.74,ESE,109,5.0,12.0,82,0.00,,---,0.00,VWS V14.01,2013-11-16 21:20:00,
2013-11-16 16:25:00,50.7,45.4,29.74,SE,127,0.0,12.0,82,0.00,,---,0.00,VWS V14.01,2013-11-16 21:25:00,
2013-11-16 16:30:00,50.7,45.4,29.74,ESE,123,5.0,12.0,82,0.00,,---,0.00,VWS V14.01,2013-11-16 21:30:00,
2013-11-16 16:35:00,51.0,45.7,29.74,ESE,104,2.0,10.0,82,0.00,,---,0.00,VWS V14.01,2013-11-16 21:35:00,
2013-11-16 16:40:00,51.0,45.7,29.74,WSW,246,2.0,12.0,82,0.00,,---,0.00,VWS V14.01,2013-11-16 21:40:00,
2013-11-16 16:45:00,51.1,45.8,29.73,SSE,160,1.0,12.0,82,0.00,,---,0.00,VWS V14.01,2013-11-16 21:45:00,
2013-11-16 16:50:00,51.1,45.5,29.73,East,97,7.0,12.0,81,0.00,,---,0.00,VWS V14.01,2013-11-16 21:50:00,
2013-11-16 16:55:00,51.3,45.7,29.73,SSW,195,2.0,12.0,81,0.00,,---,0.00,VWS V14.01,2013-11-16 21:55:00,
2013-11-16 17:00:00,51.3,45.7,29.72,SE,127,1.0,12.0,81,0.00,,---,0.00,VWS V14.01,2013-11-16 22:00:00,
2013-11-16 17:05:00,51.4,45.8,29.72,SW,220,2.0,8.0,81,0.00,,---,0.00,VWS V14.01,2013-11-16 22:05:00,
2013-11-16 17:10:00,51.6,46.0,29.72,SSE,157,3.0,8.0,81,0.00,,---,0.00,VWS V14.01,2013-11-16 22:10:00,
2013-11-16 17:15:00,51.6,46.0,29.71,East,95,1.0,8.0,81,0.00,,---,0.00,VWS V14.01,2013-11-16 22:15:00,
2013-11-16 17:20:00,51.7,46.1,29.71,SSE,161,1.0,8.0,81,0.00,,---,0.00,VWS V14.01,2013-11-16 22:20:00,
2013-11-16 17:25:00,51.7,46.1,29.71,East,90,1.0,8.0,81,0.00,,---,0.00,VWS V14.01,2013-11-16 22:25:00,
2013-11-16 17:30:00,51.9,45.9,29.69,NE,47,1.0,8.0,80,0.00,,---,0.00,VWS V14.01,2013-11-16 22:30:00,
2013-11-16 17:35:00,52.0,46.0,29.69,SE,126,0.0,8.0,80,0.00,,---,0.00,VWS V14.01,2013-11-16 22:35:00,
2013-11-16 17:40:00,52.2,46.2,29.69,WSW,256,3.0,8.0,80,0.00,,---,0.00,VWS V14.01,2013-11-16 22:40:00,
2013-11-16 17:45:00,52.3,46.3,29.69,South,185,5.0,8.0,80,0.00,,---,0.00,VWS V14.01,2013-11-16 22:45:00,
2013-11-16 17:50:00,52.3,46.3,29.69,SSE,151,0.0,8.0,80,0.00,,---,0.00,VWS V14.01,2013-11-16 22:50:00,
2013-11-16 17:55:00,52.5,46.5,29.69,SSE,147,2.0,8.0,80,0.00,,---,0.00,VWS V14.01,2013-11-16 22:55:00,
2013-11-16 18:00:00,52.6,46.6,29.69,ESE,121,8.0,8.0,80,0.00,,---,0.00,VWS V14.01,2013-11-16 23:00:00,
2013-11-16 18:05:00,52.8,46.8,29.69,ESE,112,9.0,9.0,80,0.00,,---,0.00,VWS V14.01,2013-11-16 23:05:00,
2013-11-16 18:10:00,52.9,47.2,29.69,SE,126,7.0,17.0,81,0.00,,---,0.00,VWS V14.01,2013-11-16 23:10:00,
2013-11-16 18:15:00,52.9,47.6,29.66,ESE,113,7.0,17.0,82,0.00,,---,0.00,VWS V14.01,2013-11-16 23:15:00,
2013-11-16 18:20:00,52.8,47.8,29.66,SE,144,16.0,17.0,83,0.00,,---,0.00,VWS V14.01,2013-11-16 23:20:00,
2013-11-16 18:25:00,52.8,48.1,29.66,SE,128,10.0,17.0,84,0.00,,---,0.00,VWS V14.01,2013-11-16 23:25:00,
2013-11-16 18:30:00,52.8,48.1,29.66,West,265,0.0,17.0,84,0.00,,---,0.00,VWS V14.01,2013-11-16 23:30:00,
2013-11-16 18:35:00,52.6,47.9,29.66,South,188,2.0,10.0,84,0.00,,---,0.00,VWS V14.01,2013-11-16 23:35:00,
2013-11-16 18:40:00,52.5,48.4,29.66,ESE,113,7.0,10.0,86,0.00,,---,0.00,VWS V14.01,2013-11-16 23:40:00,
2013-11-16 18:45:00,52.3,48.2,29.66,East,95,5.0,11.0,86,0.00,,---,0.00,VWS V14.01,2013-11-16 23:45:00,
2013-11-16 18:50:00,52.2,48.5,29.66,SSE,148,4.0,11.0,87,0.00,,---,0.00,VWS V14.01,2013-11-16 23:50:00,
2013-11-16 18:55:00,52.2,48.5,29.66,SSW,198,2.0,11.0,87,0.00,,---,0.00,VWS V14.01,2013-11-16 23:55:00,
2013-11-16 19:00:00,52.2,48.5,29.65,SE,126,0.0,11.0,87,0.00,,---,0.00,VWS V14.01,2013-11-17 00:00:00,
2013-11-16 19:05:00,52.2,48.8,29.65,SSE,155,0.0,7.0,88,0.00,,---,0.00,VWS V14.01,2013-11-17 00:05:00,
2013-11-16 19:10:00,52.0,48.6,29.65,SSW,195,1.0,7.0,88,0.00,,---,0.00,VWS V14.01,2013-11-17 00:10:00,
2013-11-16 19:15:00,52.0,48.6,29.66,ESE,119,1.0,13.0,88,0.00,,---,0.00,VWS V14.01,2013-11-17 00:15:00,
2013-11-16 19:20:00,52.2,48.8,29.66,South,179,1.0,13.0,88,0.00,,---,0.00,VWS V14.01,2013-11-17 00:20:00,
2013-11-16 19:25:00,52.5,48.8,29.66,SSE,151,5.0,13.0,87,0.00,,---,0.00,VWS V14.01,2013-11-17 00:25:00,
2013-11-16 19:30:00,52.8,48.7,29.64,South,185,1.0,16.0,86,0.00,,---,0.00,VWS V14.01,2013-11-17 00:30:00,
2013-11-16 19:35:00,52.9,48.8,29.64,SW,220,1.0,7.0,86,0.00,,---,0.00,VWS V14.01,2013-11-17 00:35:00,
2013-11-16 19:40:00,53.1,49.0,29.64,East,92,4.0,12.0,86,0.00,,---,0.00,VWS V14.01,2013-11-17 00:40:00,
2013-11-16 19:45:00,53.2,49.1,29.64,ENE,66,3.0,14.0,86,0.00,,---,0.00,VWS V14.01,2013-11-17 00:45:00,
2013-11-16 19:50:00,53.2,49.4,29.64,SSW,192,1.0,14.0,87,0.00,,---,0.00,VWS V14.01,2013-11-17 00:50:00,
2013-11-16 19:55:00,53.1,49.3,29.64,East,82,5.0,14.0,87,0.00,,---,0.00,VWS V14.01,2013-11-17 00:55:00,
2013-11-16 20:00:00,53.2,49.1,29.62,SSE,151,5.0,18.0,86,0.00,,---,0.00,VWS V14.01,2013-11-17 01:00:00,
2013-11-16 20:05:00,53.3,49.2,29.62,South,169,7.0,12.0,86,0.00,,---,0.00,VWS V14.01,2013-11-17 01:05:00,
2013-11-16 20:10:00,53.5,49.4,29.62,ESE,116,5.0,12.0,86,0.00,,---,0.00,VWS V14.01,2013-11-17 01:10:00,
2013-11-16 20:15:00,53.5,49.4,29.62,ESE,112,11.0,12.0,86,0.00,,---,0.00,VWS V14.01,2013-11-17 01:15:00,
2013-11-16 20:20:00,53.6,49.5,29.62,ESE,107,11.0,13.0,86,0.00,,---,0.00,VWS V14.01,2013-11-17 01:20:00,
2013-11-16 20:25:00,53.8,49.7,29.62,South,182,3.0,13.0,86,0.00,,---,0.00,VWS V14.01,2013-11-17 01:25:00,
2013-11-16 20:30:00,53.6,50.1,29.59,SW,222,4.0,13.0,88,0.00,,---,0.00,VWS V14.01,2013-11-17 01:30:00,
2013-11-16 20:35:00,53.6,50.1,29.59,East,92,6.0,8.0,88,0.00,,---,0.00,VWS V14.01,2013-11-17 01:35:00,
2013-11-16 20:40:00,53.5,50.0,29.59,SSW,195,6.0,8.0,88,0.00,,---,0.00,VWS V14.01,2013-11-17 01:40:00,
2013-11-16 20:45:00,53.5,50.0,29.58,NNE,32,0.0,11.0,88,0.00,,---,0.00,VWS V14.01,2013-11-17 01:45:00,
2013-11-16 20:50:00,53.6,50.1,29.58,ESE,116,1.0,12.0,88,0.00,,---,0.00,VWS V14.01,2013-11-17 01:50:00,
2013-11-16 20:55:00,53.8,50.0,29.58,SSW,208,6.0,14.0,87,0.00,,---,0.00,VWS V14.01,2013-11-17 01:55:00,
2013-11-16 21:00:00,53.8,50.0,29.58,SE,131,6.0,14.0,87,0.00,,---,0.00,VWS V14.01,2013-11-17 02:00:00,
2013-11-16 21:05:00,53.9,50.1,29.58,South,175,6.0,17.0,87,0.00,,---,0.00,VWS V14.01,2013-11-17 02:05:00,
2013-11-16 21:10:00,54.1,50.3,29.58,South,178,3.0,18.0,87,0.00,,---,0.00,VWS V14.01,2013-11-17 02:10:00,
2013-11-16 21:15:00,54.2,49.8,29.56,East,90,11.0,18.0,85,0.00,,---,0.00,VWS V14.01,2013-11-17 02:15:00,
2013-11-16 21:20:00,54.4,50.0,29.56,ESE,103,2.0,18.0,85,0.00,,---,0.00,VWS V14.01,2013-11-17 02:20:00,
2013-11-16 21:25:00,54.4,50.0,29.56,ESE,107,10.0,18.0,85,0.00,,---,0.00,VWS V14.01,2013-11-17 02:25:00,
2013-11-16 21:30:00,54.5,49.8,29.56,South,176,7.0,18.0,84,0.00,,---,0.00,VWS V14.01,2013-11-17 02:30:00,
2013-11-16 21:35:00,54.7,49.7,29.56,SE,126,2.0,17.0,83,0.00,,---,0.00,VWS V14.01,2013-11-17 02:35:00,
2013-11-16 21:40:00,54.8,49.7,29.56,West,261,6.0,17.0,83,0.00,,---,0.00,VWS V14.01,2013-11-17 02:40:00,
2013-11-16 21:45:00,55.0,49.9,29.54,SSE,158,6.0,17.0,83,0.00,,---,0.00,VWS V14.01,2013-11-17 02:45:00,
2013-11-16 21:50:00,55.1,49.7,29.54,SSE,167,5.0,17.0,82,0.00,,---,0.00,VWS V14.01,2013-11-17 02:50:00,
2013-11-16 21:56:00,55.3,50.2,29.54,SSW,206,2.0,17.0,83,0.00,,---,0.00,VWS V14.01,2013-11-17 02:56:00,
2013-11-16 22:00:00,55.1,50.0,29.54,East,100,8.0,17.0,83,0.00,,---,0.00,VWS V14.01,2013-11-17 03:00:00,
2013-11-16 22:01:00,55.1,50.0,29.54,East,100,8.0,17.0,83,0.00,,---,0.00,VWS V14.01,2013-11-17 03:01:00,
2013-11-16 22:06:00,54.8,50.4,29.54,East,97,7.0,20.0,85,0.00,,---,0.00,VWS V14.01,2013-11-17 03:06:00,
2013-11-16 22:11:00,54.5,51.0,29.54,SW,219,2.0,20.0,88,0.00,,---,0.00,VWS V14.01,2013-11-17 03:11:00,
2013-11-16 22:16:00,54.2,51.0,29.52,SSE,168,4.0,20.0,89,0.00,,---,0.00,VWS V14.01,2013-11-17 03:16:00,
2013-11-16 22:21:00,53.9,51.0,29.52,SE,131,17.0,20.0,90,0.00,,---,0.00,VWS V14.01,2013-11-17 03:21:00,
2013-11-16 22:26:00,54.1,50.9,29.52,SE,127,2.0,20.0,89,0.00,,---,0.00,VWS V14.01,2013-11-17 03:26:00,
2013-11-16 22:30:00,53.9,50.7,29.51,South,181,1.0,20.0,89,0.00,,---,0.00,VWS V14.01,2013-11-17 03:30:00,
2013-11-16 22:31:00,53.9,50.7,29.51,South,181,0.0,1.0,89,0.00,,---,0.00,VWS V14.01,2013-11-17 03:31:00,
2013-11-16 22:36:00,53.9,50.7,29.51,SW,224,2.0,17.0,89,0.00,,---,0.00,VWS V14.01,2013-11-17 03:36:00,
2013-11-16 22:41:00,53.9,50.7,29.51,ESE,121,3.0,17.0,89,0.00,,---,0.00,VWS V14.01,2013-11-17 03:41:00,
2013-11-16 22:46:00,53.9,50.7,29.53,East,89,7.0,19.0,89,0.00,,---,0.00,VWS V14.01,2013-11-17 03:46:00,
2013-11-16 22:51:00,53.9,50.7,29.53,ESE,116,3.0,19.0,89,0.00,,---,0.00,VWS V14.01,2013-11-17 03:51:00,
2013-11-16 22:56:00,53.9,51.0,29.53,SE,134,5.0,19.0,90,0.00,,---,0.00,VWS V14.01,2013-11-17 03:56:00,
2013-11-16 23:00:00,53.8,50.9,29.53,ENE,61,8.0,19.0,90,0.00,,---,0.00,VWS V14.01,2013-11-17 04:00:00,
2013-11-16 23:01:00,53.8,50.9,29.53,ESE,112,11.0,11.0,90,0.00,,---,0.00,VWS V14.01,2013-11-17 04:01:00,
2013-11-16 23:06:00,53.8,50.9,29.53,NNE,28,2.0,17.0,90,0.00,,---,0.00,VWS V14.01,2013-11-17 04:06:00,
2013-11-16 23:11:00,53.9,51.3,29.53,ESE,109,9.0,17.0,91,0.00,,---,0.00,VWS V14.01,2013-11-17 04:11:00,
2013-11-16 23:16:00,53.9,51.6,29.52,West,281,6.0,17.0,92,0.00,,---,0.00,VWS V14.01,2013-11-17 04:16:00,
2013-11-16 23:21:00,53.8,51.8,29.52,South,175,2.0,17.0,93,0.00,,---,0.00,VWS V14.01,2013-11-17 04:21:00,
2013-11-16 23:26:00,53.8,51.8,29.52,SW,229,11.0,17.0,93,0.00,,---,0.00,VWS V14.01,2013-11-17 04:26:00,
2013-11-16 23:30:00,53.8,51.8,29.52,SSE,152,2.0,17.0,93,0.00,,---,0.00,VWS V14.01,2013-11-17 04:30:00,
2013-11-16 23:31:00,53.8,51.8,29.52,SSE,168,2.0,3.0,93,0.00,,---,0.00,VWS V14.01,2013-11-17 04:31:00,
2013-11-16 23:36:00,53.9,51.9,29.52,South,169,6.0,16.0,93,0.00,,---,0.00,VWS V14.01,2013-11-17 04:36:00,
2013-11-16 23:41:00,53.9,51.9,29.52,ESE,117,3.0,18.0,93,0.00,,---,0.00,VWS V14.01,2013-11-17 04:41:00,
2013-11-16 23:46:00,53.9,51.9,29.52,ESE,116,6.0,18.0,93,0.00,,---,0.00,VWS V14.01,2013-11-17 04:46:00,
2013-11-16 23:51:00,53.8,51.8,29.52,East,99,7.0,18.0,93,0.00,,---,0.00,VWS V14.01,2013-11-17 04:51:00,
2013-11-16 23:56:00,53.6,51.6,29.52,SSE,164,8.0,18.0,93,0.00,,---,0.00,VWS V14.01,2013-11-17 04:56:00,